Погода в Ныде

Погода в Ныде : погода сейчас, прогноз погоды и архив. Всё, что Вы хотите узнать о погоде в Ныде!

Хотите узнать прогноз погоды в Ныде? Тогда Вам сюда: Погода в Ныде

Поиск расширенной информации на нашем сайте:

Другие новости

Новости СМИ2

Главная страница сайта

Новости сайта

03.07.2017

Напоминаем, что на нашем специализированном сайте Метеоцентр.Азия вы можете получить высокодетализированные автоматические прогнозы погоды по пунктам России, СНГ и мира в авиационном формате (включающие направление и скорость ветра, видимость, явления погоды, количество и форму облачности, нижнюю и верхнюю границу облачности).


Погода в Ныде - сегодня

Время (UTC), дата Ветер
(°,м/с) 
Видим.   Явления Облачность Т
(°С)
Тd
(°С)
f(%) Тe
(°С)
Pmin
(гПа)
dP
(гПа)
Po
(мм)
O2
(г/м3)
Тmin Tmax R s Состояние
почвы
09 20.02.18 350 (С) 20000 м    3/0 средняя 
[Ac trans]
-31.4 -35.7 66 -37  1029  1.1  771  353           
12 20.02.18 350 (С) 10 км    3/0 средняя 
[Ac trans]
-33.8 -38.3 64 -38  1029.7  0.6  771  357           
15 20.02.18 040 (СВ) 10 км    ясно 
-35.3 -40 62 -40  1029.6  -0.1  771  359    -30.3       
18 20.02.18 060 (СВ) 10 км    ясно 
-36.6 -41.5 60 -38  1030.5  0.9  772  361           
21 20.02.18 120 (ЮВ) 10 км    3/0 средняя 
[Ac trans]
-34.2 -38.8 63 -35  1030.6  0.1  772  358           
00 21.02.18 090 (В) 10 км    3/0 средняя 
[Ac trans]
-32.1 -36.4 66 -36  1030.7  0.2  772  355           
03 21.02.18 090 (В) 10 км    9/6 600 м средняя 
[Sc|Ac trans]
-31.6 -35.9 66 -35  1031.3  0.6  773  354  -36.6      84  неравномерный
сухой снег
100% 
06 21.02.18 090 (В) 10 км    8/3 600 м средняя 
[Sc|Ac trans]
-29.4 -33.5 68 -35  1031.5  0.2  773  351           
09 21.02.18 080 (В) 10 км    4/3 600 м верхняя 
[Sc|Ci sp]
-28.1 -32.1 68 -35  1031.1  -0.4  773  349           
12 21.02.18 070 (В) 10 км    3/3 600 м 
[Sc]
-29.9 -34 67 -35  1031.8  0.7  773  352           
15 21.02.18 070 (В) 10 км    ясно 
-31.2 -35.4 67 -37  1031.2  -0.6  773  354    -27.8       
18 21.02.18 060 (СВ) 10 км    ясно 
-33.2 -37.6 65 -39  1030.8  -0.4  772  356           
21 21.02.18 050 (СВ) 10 км    ясно 
-33.9 -38.5 63 -40  1030.6  -0.3  772  357           
00 22.02.18 050 (СВ) 10 км    ясно 
-34.4 -39 63 -42  1030.2  -0.4  772  358           
03 22.02.18 080 (В) 10 км    ясно 
-34.1 -38.6 64 -40  1029.3  -0.9  771  357  -34.6      84  неравномерный
сухой снег
100% 
06 22.02.18 050 (СВ) 10 км    3/0 верхняя 
[Ci fib]
-31.2 -35.4 67 -35  1028.8  -0.4  771  353           
09 22.02.18 040 (СВ) 10 км    4/0 средняя, верхняя 
[Ac trans|Ci sp]
-29.8 -33.9 68 -37  1028  -0.8  770  350           
12 22.02.18 030 (СВ) 10 км    4/0 верхняя 
[Ci sp]
-32.6 -37 65 -39  1027.8  -0.2  770  354           
15 22.02.18 030 (СВ) 4000 м  слаб. снег  10/0 средняя 
[As trans]
-30 -34.1 67 -38  1027.1  -0.7  770  350    -29.4  0.0     
18 22.02.18 030 (СВ) 10 км  {снег}  8/0 средняя 
[Ac trans]
-30.8 -34.9 67 -37  1026.4  -0.7  769  351           
21 22.02.18 030 (СВ) 10 км    4/0 верхняя 
[Ci sp]
-29.7 -33.7 68 -37  1025.7  -0.7  769  349           
00 23.02.18 030 (СВ) 4000 м  слаб. снег  10/0 средняя 
[As trans]
-26.7 -30.3 71 -32  1025.3  -0.4  768  345           
03 23.02.18 360 (С) 4000 м  мгла{снег}  9/0 средняя, верхняя 
[Ac trans|Ci fib]
-28.7 -32.7 68 -34  1024.9  -0.4  768  348  -30.9    0.4  84  неравномерный
сухой снег
100% 
06 23.02.18 010 (С) 10 км  {снег}  9/9 600 м 
[Sc]
-26.6 -30.3 71 -33  1024.1  -0.8  767  344           
09 23.02.18 350 (С) 10 км  в посл. час ливневой снег  9/9 300 м кучево-дожд. 
[Cb cap]
-22.4 -25.6 75 -28  1023.1  -1  767  338           
Время (UTC), дата Ветер
(°,м/с) 
Видим.   Явления Облачность Т
(°С)
Тd
(°С)
f(%) Тe
(°С)
Pmin
(гПа)
dP
(гПа)
Po
(мм)
O2
(г/м3)
Тmin Tmax R s Состояние
почвы

Для получения пояснительной информации подведите курсор к названию столбца.

ПОГОДА в Ныде - архив

Всё, что Вы хотите узнать о погоде в Ныде - удобно и подробно!

Выберите нужную дату (начиная с 1 января 2015* года) и нажмите кнопку "Найти".
Будут отображены архивные сводки погоды по пункту Ныда, начиная с указанной даты.


Отображать данные в формате CSV (для использования в таблицах Excel)


Внимание! Наш архив погоды предназначен исключительно для личного некоммерческого использования в познавательных целях. Если Вам необходимы официальные справки о состоянии погоды (для производственных, юридических, коммерческих и т.п. целей), обращайтесь в органы Росгидромета.

*Примечание: данная дата относится к архиву по метеостанциям СССР (Россия, СНГ, Балтия).
Архив по метеостанциям Зарубежной Европы и Азии (кроме Китая) хранится 10 дней, по другим регионам земного шара (Китай, Африка, Америка, Австралия, Океания) - 1 день.

Ныда - район местоположения метеостанции


Название, широта, долгота, высота метеостанции:
Ныда 66.7°ш. 72.9°д. 10 м над ур. моря [Российская Федерация]

Дополнительная информация

В oтличие oт бoльшинства пoгoдных сайтoв мы публикуем пoдрoбную метеoинфoрмацию в детальнoм прoфессиoнальнoм фoрмате.

Характеристики температуры и влажнoсти вoздуха измеряются на высoте 2 м в тени вдали oт зданий и деревьев.
Скoрoсть ветра измеряется на высoте 10 м (на урoвне рoста челoвека скoрoсть ветра ниже в 1.5-2 раза). Если метеoстанция нахoдится в гoрoде или в лесу, тo скoрoсть ветра занижена на 2-4 м/с пo сравнению с oткрытым местoм. Скoрoсть ветра над акватoриями крупных рек и oзёр, а также на вершинах хoлмoв на 2-5 м/с выше, чем в oбычных услoвиях.
Атмoсфернoе давление в разных тoчках местнoсти мoжет значительнo oтличаться oт давления на метеoстанции, в зависимoсти oт услoвий рельефа (при пoдъёме на 10 м давление пoнижается примернo на 1 мм рт.ст.).